CW3660 Weather Reports


Display with metric or nautical units.
time (UTC)temp
F
wind
direction
speed
MPH
gust
MPH
rain 1hr
in
rain 24hr
in
rain mn
in
humidity
%
barometer
mb
20260510163037 69 203 4.0 12.0 0.00 0.34 0.01 66 1012.0
20260510162017 68 180 4.0 12.0 0.00 0.34 0.01 66 1012.1
20260510161016 68 180 4.0 12.0 0.00 0.35 0.01 66 1012.0
20260510160017 67 203 4.0 12.0 0.00 0.35 0.01 67 1012.2
20260510155016 66 203 4.0 10.0 0.00 0.36 0.01 70 1012.2
20260510154016 65 225 3.0 8.0 0.00 0.37 0.01 71 1012.3
20260510153017 65 180 4.0 11.0 0.00 0.37 0.01 72 1012.5
20260510152017 64 158 4.0 10.0 0.00 0.37 0.01 75 1012.4
20260510151017 63 180 2.0 6.0 0.00 0.37 0.01 78 1012.5
20260510150017 62 248 2.0 7.0 0.00 0.38 0.01 80 1012.5
20260510145016 61 270 3.0 8.0 0.00 0.38 0.01 81 1012.5
20260510144017 61 225 3.0 9.0 0.00 0.39 0.01 80 1012.7
20260510143016 60 158 2.0 6.0 0.00 0.39 0.01 83 1012.7
20260510142016 60 0.0 1.0 0.00 0.40 0.01 85 1012.6
20260510141036 59 0.0 2.0 0.00 0.40 0.01 86 1012.7
20260510140037 58 225 1.0 3.0 0.00 0.41 0.01 87 1012.7
20260510135037 58 225 1.0 3.0 0.00 0.41 0.01 90 1012.7
20260510134016 57 248 1.0 4.0 0.00 0.41 0.01 92 1012.6
20260510133037 56 225 1.0 5.0 0.00 0.42 0.01 93 1012.7
20260510132036 55 225 1.0 4.0 0.00 0.42 0.01 95 1012.6
20260510131016 54 180 1.0 5.0 0.00 0.42 0.01 95 1012.6
20260510130016 54 338 1.0 5.0 0.00 0.43 0.01 95 1012.7
20260510125036 53 180 1.0 4.0 0.00 0.43 0.01 96 1012.7
20260510124017 53 225 1.0 4.0 0.00 0.43 0.01 96 1012.7
20260510123017 53 180 2.0 7.0 0.00 0.43 0.01 96 1012.9
20260510122037 53 180 2.0 6.0 0.00 0.43 0.01 96 1012.7
20260510121016 53 225 2.0 5.0 0.00 0.43 0.01 96 1012.5
20260510120016 52 225 1.0 4.0 0.00 0.43 0.01 96 1012.6
20260510115016 52 180 1.0 4.0 0.00 0.43 0.01 96 1012.5
20260510114016 52 203 1.0 5.0 0.00 0.43 0.01 96 1012.5
20260510113036 51 0.0 1.0 0.00 0.43 0.01 96 1012.6
20260510112016 51 0.0 3.0 0.00 0.43 0.01 96 1012.5
20260510111016 51 158 2.0 5.0 0.00 0.43 0.01 96 1012.2
20260510110056 51 158 1.0 4.0 0.00 0.43 0.01 96 1011.9
20260510105016 50 180 1.0 5.0 0.00 0.43 0.01 96 1012.2
20260510104017 50 135 2.0 8.0 0.00 0.43 0.01 96 1011.8
20260510103016 50 158 2.0 6.0 0.00 0.43 0.01 96 1011.9
20260510102016 50 158 3.0 5.0 0.00 0.43 0.01 96 1012.0
20260510101016 50 158 2.0 5.0 0.00 0.43 0.01 96 1011.9
20260510100016 49 158 2.0 5.0 0.00 0.43 0.01 96 1011.8
20260510095016 49 180 1.0 3.0 0.00 0.43 0.01 96 1012.2
20260510094016 49 180 1.0 3.0 0.00 0.43 0.01 96 1012.0
20260510093016 49 0.0 2.0 0.00 0.43 0.01 96 1011.9
20260510092016 49 0.0 1.0 0.00 0.43 0.01 96 1011.9
20260510091016 49 0.0 0.0 0.00 0.43 0.01 96 1011.8
20260510090016 49 0.0 1.0 0.00 0.43 0.01 96 1011.7
20260510085016 49 0.0 1.0 0.00 0.43 0.01 96 1011.7
20260510084016 49 0.0 1.0 0.00 0.43 0.01 96 1011.6
20260510083016 49 0.0 1.0 0.00 0.43 0.01 96 1011.5
20260510082016 49 0.0 3.0 0.00 0.43 0.01 96 1011.5
20260510081016 49 180 1.0 4.0 0.00 0.43 0.01 96 1011.3
20260510080016 49 180 1.0 3.0 0.00 0.43 0.01 96 1011.2
20260510075036 49 180 1.0 3.0 0.00 0.43 0.01 96 1011.3
20260510074016 50 158 2.0 3.0 0.00 0.43 0.01 96 1011.3
20260510073016 50 158 1.0 4.0 0.01 0.43 0.01 96 1011.3
20260510072036 50 180 2.0 4.0 0.01 0.43 0.01 96 1011.0
20260510071016 50 158 1.0 3.0 0.01 0.43 0.01 96 1010.9
20260510070036 50 158 1.0 3.0 0.01 0.43 0.01 96 1010.8
20260510065016 50 158 1.0 3.0 0.01 0.43 0.01 96 1010.8
20260510064015 51 158 1.0 3.0 0.01 0.43 0.01 96 1011.3
20260510063016 51 0.0 2.0 0.00 0.42 0.00 96 1011.3
20260510062016 51 0.0 0.0 0.00 0.42 0.00 96 1011.3
20260510061015 51 0.0 0.0 0.00 0.42 0.00 96 1011.4
20260510060016 51 0.0 1.0 0.00 0.42 0.00 96 1011.1
20260510055016 51 0.0 2.0 0.00 0.42 0.00 96 1011.5
20260510054056 51 0.0 1.0 0.00 0.42 0.00 96 1011.4
20260510053016 51 0.0 1.0 0.00 0.42 0.00 96 1011.6
20260510052016 51 0.0 1.0 0.00 0.42 0.00 96 1011.7
20260510051015 51 0.0 1.0 0.00 0.42 0.00 96 1011.6
20260510050015 51 0.0 2.0 0.00 0.42 0.00 96 1011.6
20260510045015 51 0.0 1.0 0.00 0.42 0.00 96 1011.8
20260510044015 51 0.0 2.0 0.00 0.42 0.00 96 1011.9
20260510043035 51 0.0 1.0 0.00 0.42 0.00 96 1011.9
20260510042015 51 0.0 0.0 0.00 0.42 0.00 96 1011.8
20260510041015 51 0.0 1.0 0.00 0.42 0.00 96 1011.8
20260510040015 51 0.0 1.0 0.00 0.42 0.42 96 1011.4
20260510035016 51 158 1.0 3.0 0.00 0.42 0.42 96 1011.8
20260510034016 51 158 1.0 4.0 0.00 0.42 0.42 96 1011.8
20260510033016 51 180 2.0 5.0 0.00 0.42 0.42 96 1011.8
20260510032016 51 158 2.0 5.0 0.00 0.42 0.42 96 1012.0
20260510031016 51 158 1.0 5.0 0.00 0.42 0.42 96 1012.2
20260510030017 51 158 2.0 4.0 0.00 0.42 0.42 96 1012.3
20260510025016 51 158 2.0 5.0 0.00 0.42 0.42 96 1012.3
20260510024016 51 158 1.0 2.0 0.00 0.42 0.42 96 1012.4
20260510023015 51 0.0 2.0 0.00 0.42 0.42 96 1012.4
20260510022016 51 0.0 1.0 0.00 0.42 0.42 96 1012.4
20260510021016 51 158 1.0 3.0 0.00 0.42 0.42 96 1012.4
20260510020016 51 158 1.0 3.0 0.00 0.42 0.42 96 1012.5
20260510015016 51 180 1.0 3.0 0.00 0.42 0.42 96 1012.5
20260510014016 50 135 1.0 3.0 0.00 0.42 0.42 95 1012.6
20260510013016 50 0.0 1.0 0.00 0.42 0.42 95 1012.5
20260510012015 50 158 2.0 5.0 0.01 0.42 0.42 95 1012.3
20260510011016 49 135 2.0 8.0 0.02 0.42 0.42 96 1012.1
20260510010016 49 135 2.0 5.0 0.03 0.42 0.42 95 1012.0
20260510005016 49 135 2.0 5.0 0.04 0.42 0.42 95 1012.0
20260510004016 48 158 1.0 5.0 0.06 0.42 0.42 95 1012.2
20260510003016 48 113 1.0 4.0 0.07 0.42 0.42 95 1012.3
20260510002015 48 113 3.0 8.0 0.08 0.41 0.41 95 1012.2
20260510001016 48 135 3.0 7.0 0.08 0.40 0.40 95 1012.3
20260510000016 47 158 2.0 6.0 0.07 0.39 0.39 95 1012.5
20260509235016 47 135 2.0 5.0 0.07 0.38 0.38 95 1012.4
20260509234015 47 135 2.0 4.0 0.06 0.36 0.36 95 1012.7
20260509233015 47 135 1.0 4.0 0.05 0.35 0.35 94 1012.5
20260509232015 47 135 1.0 3.0 0.04 0.33 0.33 94 1012.5
20260509231015 47 135 1.0 4.0 0.03 0.32 0.32 94 1012.3
20260509230015 47 0.0 2.0 0.04 0.32 0.32 94 1012.1
20260509225015 48 0.0 2.0 0.03 0.31 0.31 94 1012.1
20260509224015 48 0.0 4.0 0.03 0.30 0.30 94 1012.2
20260509223015 48 45 1.0 5.0 0.04 0.30 0.30 94 1012.3
20260509222015 48 0 2.0 5.0 0.06 0.29 0.29 94 1012.4
20260509221035 48 23 1.0 3.0 0.09 0.29 0.29 94 1012.4
20260509220035 48 0 1.0 3.0 0.11 0.28 0.28 94 1012.6
20260509215016 48 45 2.0 6.0 0.12 0.28 0.28 94 1012.6
20260509214017 48 338 2.0 7.0 0.14 0.27 0.27 93 1012.6
20260509213017 48 0 3.0 7.0 0.15 0.26 0.26 93 1012.4
20260509212017 49 0 3.0 5.0 0.12 0.23 0.23 93 1012.4
20260509211017 49 23 1.0 4.0 0.09 0.20 0.20 93 1012.3
20260509210017 49 45 2.0 6.0 0.06 0.17 0.17 93 1012.5
20260509205017 49 45 1.0 5.0 0.05 0.16 0.16 92 1012.2
20260509204017 49 45 1.0 6.0 0.02 0.13 0.13 92 1012.5
20260509203017 49 23 3.0 7.0 0.00 0.11 0.11 92 1012.4
20260509202017 49 23 2.0 7.0 0.00 0.11 0.11 92 1012.5
20260509201017 49 45 2.0 8.0 0.00 0.11 0.11 92 1012.5
20260509200038 50 45 2.0 5.0 0.00 0.11 0.11 92 1012.4
20260509195017 50 0 1.0 4.0 0.00 0.11 0.11 92 1012.7
20260509194017 50 0 1.0 6.0 0.00 0.11 0.11 92 1012.5
20260509193057 50 23 3.0 6.0 0.00 0.11 0.11 92 1012.4
20260509192018 50 45 2.0 4.0 0.00 0.11 0.11 92 1012.2
20260509191017 50 0 4.0 7.0 0.00 0.11 0.11 92 1012.0
20260509190017 50 45 2.0 8.0 0.00 0.11 0.11 92 1012.4
20260509185017 50 23 2.0 8.0 0.00 0.11 0.11 92 1012.2
20260509184137 50 23 3.0 6.0 0.01 0.11 0.11 92 1012.7
20260509183017 50 0 2.0 5.0 0.01 0.11 0.11 92 1012.8
20260509182037 50 23 1.0 4.0 0.01 0.11 0.11 91 1013.2
20260509181017 50 0 1.0 5.0 0.01 0.11 0.11 91 1013.4
20260509180017 49 23 2.0 5.0 0.01 0.11 0.11 91 1013.1
20260509175017 49 23 2.0 5.0 0.01 0.11 0.11 90 1013.3
20260509174059 49 0 1.0 6.0 0.00 0.10 0.10 90 1013.5
20260509173017 49 0 1.0 5.0 0.01 0.10 0.10 90 1013.3
20260509172017 49 0 2.0 5.0 0.01 0.10 0.10 90 1013.3
20260509171017 49 23 1.0 4.0 0.02 0.10 0.10 90 1013.9
20260509170017 49 135 1.0 3.0 0.02 0.10 0.10 90 1013.7
20260509165017 48 90 1.0 3.0 0.03 0.10 0.10 90 1013.8
20260509164037 48 135 1.0 3.0 0.04 0.10 0.10 90 1013.9